• En Colombia
  • Lista de países
  • Para 7 días
  • Temperatura del agua
  • El tiempo en el mapa
  • Informadores
  • user-avatar
    Iniciar sesión

    Tiempo cada hora Ostrava

    Hoy, 6 Diciembre, Viernes

    Tiempo Temperatura Precipitaciones Viento Presión Humedad
    00:00 -5°C° 0 mm 6 mps 747 mmHg 78%
    01:00 -5°C° 0 mm 6 mps 747 mmHg 80%
    02:00 -5°C° 0 mm 6 mps 746 mmHg 80%
    03:00 -5°C° 0 mm 6 mps 746 mmHg 81%
    04:00 -6°C° 0 mm 7 mps 746 mmHg 81%
    05:00 -6°C° 0 mm 7 mps 746 mmHg 80%
    06:00 -5°C° 0 mm 6 mps 746 mmHg 80%
    07:00 -5°C° 0 mm 6 mps 746 mmHg 77%
    08:00 -5°C° 0 mm 6 mps 746 mmHg 75%
    09:00 -4°C° 0 mm 7 mps 745 mmHg 72%
    10:00 -4°C° 0 mm 7 mps 745 mmHg 69%
    11:00 -3°C° 0 mm 7 mps 745 mmHg 67%
    12:00 -2°C° 0 mm 7 mps 744 mmHg 64%
    13:00 -2°C° 0 mm 7 mps 744 mmHg 62%
    14:00 -2°C° 0 mm 6 mps 744 mmHg 66%
    15:00 -3°C° 0 mm 6 mps 743 mmHg 69%
    16:00 -4°C° 0 mm 6 mps 743 mmHg 73%
    17:00 -4°C° 0 mm 6 mps 743 mmHg 73%
    18:00 -4°C° 0 mm 6 mps 743 mmHg 74%
    19:00 -4°C° 0 mm 6 mps 743 mmHg 74%
    20:00 -4°C° 0 mm 6 mps 743 mmHg 74%
    21:00 -4°C° 0 mm 6 mps 742 mmHg 74%
    22:00 -4°C° 0 mm 6 mps 742 mmHg 74%
    23:00 -4°C° 0 mm 6 mps 742 mmHg 74%

    Mañana, 7 Diciembre, Sábado

    Tiempo Temperatura Precipitaciones Viento Presión Humedad
    00:00 -2°C° 0 mm 5 mps 741 mmHg 74%
    01:00 -2°C° 0 mm 5 mps 741 mmHg 74%
    02:00 -2°C° 0 mm 5 mps 741 mmHg 75%
    03:00 -3°C° 0 mm 6 mps 740 mmHg 75%
    04:00 -3°C° 0 mm 6 mps 740 mmHg 76%
    05:00 -3°C° 0 mm 6 mps 740 mmHg 76%
    06:00 -3°C° 0 mm 6 mps 740 mmHg 75%
    07:00 -3°C° 0 mm 6 mps 740 mmHg 75%
    08:00 -2°C° 0 mm 6 mps 740 mmHg 76%
    09:00 -1°C° 0 mm 6 mps 740 mmHg 78%
    10:00 0°C° 0 mm 7 mps 740 mmHg 79%
    11:00 +2°C° 0 mm 7 mps 739 mmHg 79%
    12:00 +3°C° 0 mm 7 mps 739 mmHg 79%
    13:00 +3°C° 0 mm 7 mps 739 mmHg 80%
    14:00 +3°C° 0.1 mm 6 mps 739 mmHg 82%
    15:00 +3°C° 0.1 mm 6 mps 739 mmHg 84%
    16:00 +3°C° 0.1 mm 5 mps 739 mmHg 86%
    17:00 +3°C° 0 mm 5 mps 740 mmHg 86%
    18:00 +3°C° 0 mm 5 mps 740 mmHg 87%
    19:00 +3°C° 0 mm 5 mps 740 mmHg 87%
    20:00 +3°C° 0 mm 5 mps 741 mmHg 87%
    21:00 +3°C° 0 mm 5 mps 741 mmHg 87%
    22:00 +2°C° 0 mm 5 mps 741 mmHg 88%
    23:00 +2°C° 0 mm 5 mps 741 mmHg 88%

    Pasado mañana, 8 Diciembre, Domingo

    Tiempo Temperatura Precipitaciones Viento Presión Humedad
    00:00 +2°C° 0 mm 5 mps 741 mmHg 89%
    01:00 +3°C° 0 mm 5 mps 741 mmHg 89%
    02:00 +2°C° 0 mm 5 mps 741 mmHg 88%
    03:00 +3°C° 0 mm 4 mps 741 mmHg 88%
    04:00 +3°C° 0 mm 4 mps 741 mmHg 87%
    05:00 +3°C° 0 mm 4 mps 741 mmHg 87%
    06:00 +3°C° 0 mm 4 mps 741 mmHg 87%
    07:00 +3°C° 0 mm 4 mps 741 mmHg 87%
    08:00 +3°C° 0 mm 4 mps 741 mmHg 85%
    09:00 +3°C° 0 mm 5 mps 741 mmHg 83%
    10:00 +3°C° 0 mm 5 mps 741 mmHg 82%
    11:00 +5°C° 0 mm 5 mps 740 mmHg 79%
    12:00 +4°C° 0 mm 6 mps 740 mmHg 76%
    13:00 +5°C° 0 mm 7 mps 739 mmHg 74%
    14:00 +5°C° 0 mm 6 mps 739 mmHg 75%
    15:00 +5°C° 0 mm 6 mps 738 mmHg 77%
    16:00 +5°C° 0 mm 5 mps 738 mmHg 79%
    17:00 +5°C° 0 mm 5 mps 738 mmHg 77%
    18:00 +5°C° 0 mm 5 mps 737 mmHg 75%
    19:00 +4°C° 0 mm 6 mps 737 mmHg 73%
    20:00 +4°C° 0.1 mm 6 mps 737 mmHg 75%
    21:00 +4°C° 0.1 mm 6 mps 736 mmHg 76%
    22:00 +4°C° 0.1 mm 6 mps 736 mmHg 78%
    23:00 +4°C° 0.3 mm 6 mps 736 mmHg 80%

    9 Diciembre, Lunes

    Tiempo Temperatura Precipitaciones Viento Presión Humedad
    00:00 +4°C° 0.3 mm 6 mps 735 mmHg 82%
    01:00 +5°C° 0.3 mm 5 mps 735 mmHg 83%
    02:00 +5°C° 0.4 mm 5 mps 734 mmHg 84%
    03:00 +5°C° 0.4 mm 5 mps 734 mmHg 84%
    04:00 +3°C° 0.4 mm 5 mps 733 mmHg 84%
    05:00 +5°C° 0.2 mm 5 mps 733 mmHg 85%
    06:00 +5°C° 0.2 mm 4 mps 733 mmHg 86%
    07:00 +5°C° 0.2 mm 4 mps 733 mmHg 87%
    08:00 +5°C° 0.3 mm 4 mps 733 mmHg 87%
    09:00 +5°C° 0.3 mm 4 mps 733 mmHg 86%
    10:00 +5°C° 0.3 mm 5 mps 733 mmHg 86%
    11:00 +5°C° 0 mm 5 mps 733 mmHg 83%
    12:00 +6°C° 0 mm 4 mps 733 mmHg 79%
    13:00 +6°C° 0 mm 4 mps 732 mmHg 76%
    14:00 +6°C° 0 mm 4 mps 732 mmHg 79%
    15:00 +5°C° 0 mm 3 mps 732 mmHg 81%
    16:00 +4°C° 0 mm 3 mps 731 mmHg 84%
    17:00 +4°C° 0 mm 3 mps 731 mmHg 84%
    18:00 +4°C° 0 mm 3 mps 732 mmHg 84%
    19:00 +3°C° 0 mm 3 mps 732 mmHg 84%
    20:00 +3°C° 0 mm 3 mps 732 mmHg 85%
    21:00 +3°C° 0 mm 3 mps 732 mmHg 86%
    22:00 +2°C° 0 mm 3 mps 731 mmHg 87%
    23:00 +2°C° 0 mm 3 mps 731 mmHg 87%

    10 Diciembre, Martes

    Tiempo Temperatura Precipitaciones Viento Presión Humedad
    00:00 +1°C° 0 mm 4 mps 732 mmHg 88%
    01:00 +1°C° 0 mm 4 mps 732 mmHg 88%
    02:00 +1°C° 0 mm 4 mps 732 mmHg 88%
    03:00 +1°C° 0 mm 4 mps 732 mmHg 88%
    04:00 +1°C° 0 mm 4 mps 732 mmHg 88%
    05:00 +3°C° 0 mm 4 mps 732 mmHg 88%
    06:00 +2°C° 0 mm 5 mps 733 mmHg 88%
    07:00 +2°C° 0 mm 5 mps 733 mmHg 88%
    08:00 +2°C° 0 mm 5 mps 734 mmHg 83%
    09:00 +2°C° 0 mm 5 mps 735 mmHg 78%
    10:00 +2°C° 0 mm 5 mps 736 mmHg 73%
    11:00 +2°C° 0.1 mm 5 mps 736 mmHg 76%
    12:00 +2°C° 0.1 mm 5 mps 737 mmHg 80%
    13:00 +2°C° 0.1 mm 5 mps 737 mmHg 84%
    14:00 +1°C° 0.4 mm 5 mps 738 mmHg 84%
    15:00 +1°C° 0.4 mm 6 mps 739 mmHg 84%
    16:00 +1°C° 0.4 mm 6 mps 740 mmHg 85%
    17:00 -1°C° 0.1 mm 6 mps 741 mmHg 82%
    18:00 0°C° 0.1 mm 5 mps 742 mmHg 79%
    19:00 -1°C° 0.1 mm 5 mps 743 mmHg 76%
    20:00 -1°C° 0 mm 4 mps 743 mmHg 74%
    21:00 -1°C° 0 mm 3 mps 744 mmHg 72%
    22:00 -1°C° 0 mm 2 mps 744 mmHg 71%
    23:00 -2°C° 0 mm 2 mps 745 mmHg 71%

    11 Diciembre, Miércoles

    Tiempo Temperatura Precipitaciones Viento Presión Humedad
    00:00 0°C° 0 mm 1 mps 745 mmHg 72%
    01:00 -1°C° 0 mm 1 mps 745 mmHg 72%
    02:00 -1°C° 0 mm 1 mps 745 mmHg 72%
    03:00 -1°C° 0 mm 1 mps 745 mmHg 72%
    04:00 -1°C° 0 mm 1 mps 745 mmHg 73%
    05:00 -3°C° 0 mm 2 mps 745 mmHg 72%
    06:00 -3°C° 0 mm 2 mps 744 mmHg 72%
    07:00 -3°C° 0 mm 2 mps 744 mmHg 72%
    08:00 -3°C° 0 mm 2 mps 744 mmHg 66%
    09:00 -2°C° 0 mm 3 mps 743 mmHg 60%
    10:00 -1°C° 0 mm 3 mps 743 mmHg 55%
    11:00 0°C° 0 mm 3 mps 742 mmHg 51%
    12:00 0°C° 0 mm 4 mps 742 mmHg 47%
    13:00 +1°C° 0 mm 4 mps 741 mmHg 43%
    14:00 0°C° 0 mm 4 mps 741 mmHg 48%
    15:00 -1°C° 0 mm 4 mps 740 mmHg 52%
    16:00 -2°C° 0 mm 4 mps 740 mmHg 57%
    17:00 -1°C° 0 mm 4 mps 740 mmHg 61%
    18:00 -1°C° 0 mm 4 mps 740 mmHg 66%
    19:00 -1°C° 0 mm 4 mps 740 mmHg 70%
    20:00 -1°C° 0 mm 4 mps 740 mmHg 72%
    21:00 -1°C° 0 mm 4 mps 740 mmHg 74%
    22:00 -1°C° 0 mm 4 mps 740 mmHg 77%
    23:00 -1°C° 0 mm 4 mps 739 mmHg 77%
    Mostrar más